Flag for Brazil Weather past 2 weeks in Ribeirão Prêto, São Paulo, Brazil

Now
79 °F

Clear.


Feels Like: 80 °F
Forecast: 70 / 83 °F
Wind: 6 mph from West

Location: Leite Lopes / Ribeir

Current Time: Oct 24, 2014 at 10:46:30 PM

Latest Report: Oct 24, 2014 at 10:00 PM


Visibility: 10 mi

Pressure: 29.92 "Hg

Humidity: 58%

Dew point: 63 °F

Location of Ribeirão PrêtoLocation

Historic Weather in Ribeirão Prêto — Graph

°F

Ribeirão Prêto temperature yesterday

Maximum temperature yesterday: 93 °F (at 4:00 PM)
Minimum temperature yesterday: 68 °F (at 6:00 AM)
Average temperature yesterday: 81 °F

Past Weeks' High & Low Weather Summary

 TemperatureHumidityPressure
High104 °F (Oct 14, 4:00 PM)94% (Oct 24, 3:00 AM)30.12 "Hg (Oct 24, 3:00 AM)
Low66 °F (Oct 12, 6:00 AM)11% (Oct 15, 3:00 PM)29.77 "Hg (Oct 18, 4:00 PM)
Average84 °F37%29.96 "Hg
* Reported Oct 9 8:00 PM — Oct 24 9:00 PM, Ribeirão Prêto, Weather by CustomWeather, © 2014

Note: Actual official high and low records may vary slightly from our data, if they occured in-between our weather recording intervals... More about our weather records

Advertising

Ribeirão Prêto weather history for previous 24 hours

 ConditionsComfort  
Time TempWeatherWind HumidityBarometerVisibility
9:00 PM
Oct 24
81 °FClear.3 mph58%29.92 "Hg10 mi
8:00 PM81 °FClear.3 mph54%29.89 "Hg10 mi
7:00 PM82 °FThunderstorms. Partly sunny.7 mph51%29.86 "HgN/A
6:00 PM84 °FPassing clouds.12 mph45%29.86 "HgN/A
5:00 PM88 °FPassing clouds.6 mph35%29.86 "HgN/A
4:00 PM88 °FScattered clouds.5 mph35%29.89 "HgN/A
3:00 PM88 °FScattered clouds.10 mph38%29.92 "HgN/A
2:00 PM90 °FPassing clouds.13 mph36%29.95 "HgN/A
1:00 PM88 °FPassing clouds.7 mph35%30.01 "HgN/A
12:00 PM86 °FPassing clouds.8 mph38%30.01 "HgN/A
11:00 AM82 °FPassing clouds.10 mph48%30.04 "HgN/A
10:00 AM81 °FSunny.8 mph54%30.04 "Hg10 mi
9:00 AM77 °FSunny.5 mph61%30.04 "Hg10 mi
8:00 AM75 °FSunny.No wind74%30.01 "Hg10 mi
7:00 AM70 °FSunny.3 mph83%29.95 "Hg10 mi
6:00 AM68 °FClear.1 mph88%29.98 "Hg10 mi
5:00 AM70 °FLight rain. Passing clouds.3 mph83%29.98 "HgN/A
4:00 AM68 °FThunderstorms. Partly cloudy.5 mph83%N/AN/A
3:00 AM66 °FStrong thunderstorms. Partly cloudy.12 mph94%30.01 "Hg1 mi
2:00 AM75 °FThunderstorms. Passing clouds.7 mph69%30.01 "Hg5 mi
1:00 AM77 °FPassing clouds.5 mph57%29.98 "HgN/A
12:00 AM79 °FClear.5 mph51%29.98 "Hg10 mi
11:00 PM
Oct 23
81 °FClear.3 mph48%29.98 "Hg10 mi
10:00 PM81 °FClear.3 mph45%29.98 "Hg10 mi
Weather by CustomWeather, © 2014

See weather overviewHow to use our weather pages